Location: Korczew
(51.3586°N, 19.4491°E)
Time: 21:21:45
(UTC+00:00)

Cosmos 1842 - Pass Details

Date: 19 May 2025
Orbit: 440 x 450 km, 82.5° (Epoch: 16 June)

Event Time Altitude Azimuth Distance (km) Brightness Sun altitude
Exits shadow 22:04:34 55° 147° (SSE) 552 2.9 -18.3°
Maximum altitude 22:05:06 66° 98° (E) 501 2.9 -18.3°
Drops below altitude 10° 22:08:34 10° 15° (NNE) 1,602 6.7 -18.4°
Sets 22:10:39 0° 13° (NNE) 2,481 8.0 -18.4°
